Skip Page Navigation
NASA JPL Caltech
NASA Logo - Jet Propulsion Laboratory + View the NASA Portal
+ Center for Near-Earth Object Studies
JPL Home Earth Solar System Stars & Galaxies Technology
JPL Solar System Dynamics
BODIES ORBITS EPHEMERIDES TOOLS PHYSICAL DATA DISCOVERY FAQ SITE MAP
JPL Small-Body Database Browser
Search: [ help ]  
385334 (2002 GA106)
Classification: Main-belt Asteroid          SPK-ID: 2385334
Ephemeris | Orbit Diagram | Orbital Elements | Mission Design | Physical Parameters | Discovery Circumstances | Close-Approach Data ]

[ hide orbit diagram ]

For accurate long-term ephemerides, please instead use our Horizons system.This orbit viewer was implemented using two-body methods, and hence should not be used for determining accurate long-term trajectories (over several years or decades) or planetary encounter circumstances.


Orbital Elements at Epoch 2459396.5 (2021-Jul-01.0) TDB
Reference: JPL 13 (heliocentric ecliptic J2000)
 Element Value Uncertainty (1-sigma)   Units 
e .1888633418512324 8.4927e-08  
a 2.614375730519945 1.6661e-08 au
q 2.120615993199191 2.1699e-07 au
i 14.7357218563706 7.2591e-06 deg
node 51.88843208424043 1.9712e-05 deg
peri 163.9550319350329 2.4794e-05 deg
M 184.4469474782004 1.2001e-05 deg
tp 2460149.432972839282
(2023-Jul-23.93297284)
5.2122e-05 TDB
period 1544.011148359169
4.23
1.476e-05
4.041e-08
d
yr
n .2331589382515628 2.2289e-09 deg/d
Q 3.108135467840699 1.9808e-08 au
  Orbit Determination Parameters
   # obs. used (total)      296  
   data-arc span      6797 days (18.61 yr)  
   first obs. used      2002-03-12  
   last obs. used      2020-10-20  
   planetary ephem.      DE441  
   SB-pert. ephem.      SB441-N16  
   condition code      0  
   norm. resid. RMS      .54557  
   source      ORB  
   producer      Otto Matic  
   solution date      2021-Apr-14 11:05:01  

Additional Information
 Earth MOID = 1.11675 au 
 Jupiter MOID = 1.87325 au 
 T_jup = 3.337 
[ show covariance matrix ]

Ephemeris | Orbit Diagram | Orbital Elements | Mission Design | Physical Parameters | Discovery Circumstances | Close-Approach Data ]

Physical Parameter Table
Parameter Symbol Value Units Sigma Reference Notes
absolute magnitude H 16.43   n/a MPCxxxxx  

385334 (2002 GA106)          Discovered 2002-Apr-11 by LONEOS at Anderson Mesa
Reference: Last Updated: 2014-02-19

[ show close-approach data ]
Ephemeris | Orbit Diagram | Orbital Elements | Mission Design | Physical Parameters | Discovery Circumstances | Close-Approach Data ]
ABOUT SSD CREDITS/AWARDS PRIVACY/COPYRIGHT GLOSSARY LINKS
FirstGov 2021-Jul-26 23:01 UT
(server date/time)  
NASA Home Page
Site Manager:   Ryan S. Park
Webmaster  Alan B. Chamberlin